Location: Dos Palmas
(32.4468°N, 116.8732°W)
Time: 00:43:17
(UTC+00:00)

ATLAS 2AS CENTAUR R/B - Pass Details

Date: 20 June 2021
Orbit: 949 x 1263 km, 63.7° (Epoch: 31 July)

Event Time Altitude Azimuth Distance (km) Brightness Sun altitude
Exits shadow 11:23:38 - 187° (S) 3,541 5.0 -14.2°
Reaches altitude 10° 11:24:41 10° 184° (S) 3,203 4.8 -14.1°
Maximum altitude 11:32:06 49° 113° (ESE) 1,585 3.8 -12.9°
Drops below altitude 10° 11:39:35 10° 41° (NE) 3,232 6.7 -11.6°
Sets 11:42:26 0° 37° (NE) 4,182 7.5 -11.1°
